Current Weather Conditions: station 62164

sailwx.info

Last reported at 2019-Aug-22 21:53 UTC.
Time now 2020-Jan-26 01:39 UTC

Location: N 57°12' E 000°48'.
View on Google Maps.

See reports from other nearby stations

  
Tides and Currents Weather Stations Pressure Air Temp Water Temp Dewpoint Dewpoint Depression Visibility Wind Speed Wind Dir Waves Ship Positions
date/time (UTC)wind fromknots sea level pressurealtimeterstation pressurevisibilityair tempwater tempwave heightnotes
2020-Jan-26 00:00 220 22 5.4
2020-Jan-25 23:00 220 21 5.4
2020-Jan-25 22:00 220 20 10.8
2020-Jan-25 21:00 230 15 10.8
2020-Jan-25 20:00 230 15 10.8
2020-Jan-25 19:00 240 14 10.8
2020-Jan-25 18:00 240 17 10.8
2020-Jan-25 17:00 230 17 10.8
2020-Jan-25 16:00 230 20 10.8
2020-Jan-25 15:00 230 21 10.8
2020-Jan-25 14:00 230 21 10.8
2020-Jan-25 13:00 220 26 5.4
2020-Jan-25 12:00 230 22 5.4
2020-Jan-25 11:00 230 20 10.8
2020-Jan-25 10:00 230 21 10.8
2020-Jan-25 09:00 230 20 10.8
2020-Jan-25 08:00 230 13 10.8
2020-Jan-25 07:00 220 19 10.8
2020-Jan-25 06:00 220 17 10.8
2020-Jan-25 05:00 210 17 5.4
2020-Jan-25 04:00 230 13 10.8
2020-Jan-25 03:00 230 14 10.8
2020-Jan-25 02:00 230 13 10.8
2020-Jan-25 01:00 220 13 10.8
2020-Jan-25 00:00 220 13 10.8
2020-Jan-24 23:00 220 12 10.8
2020-Jan-24 22:00 230 11 10.8
2020-Jan-24 21:00 230 9 10.8
2020-Jan-24 20:00 230 8 10.8
2020-Jan-24 19:00 260 7 10.8
2020-Jan-24 18:00 280 6 10.8
2020-Jan-24 17:00 290 7 10.8
2020-Jan-24 16:00 280 8 10.8
2020-Jan-24 15:00 270 7 10.8
2020-Jan-24 14:00 280 8 10.8
2020-Jan-24 13:00 290 9 10.8
2020-Jan-24 12:00 300 12 10.8
2020-Jan-24 11:00 300 8 10.8
2020-Jan-24 10:00 300 8 5.4
2020-Jan-24 09:00 310 8 10.8
2020-Jan-24 08:00 320 12 10.8
2020-Jan-24 07:00 320 12 10.8
2020-Jan-24 06:00 320 14 10.8
2020-Jan-24 05:00 290 13 5.4
2020-Jan-24 04:00
2020-Jan-24 03:00 290 12 5.4
2020-Jan-24 02:00 270 13 5.4
2020-Jan-24 01:00 260 12 5.4